User: anonymous   Login
Location: Vancouver
(49.2500°N, 123.1330°W)
Time: 17:11:10
(UTC-07:00)
Language:

SO-67 - Orbit

View from above orbital plane
View from above orbital plane
View from above satellite
View from above satellite

Ground track
Ground track

The orbit data is extracted from the following two-line orbital elements,

1 35870U 09049F   15148.50529455  .00007242  00000-0  17424-3 0  9995
2 35870 097.1360 165.2585 0001163 078.0252 052.0523 15.41582755317087
Epoch (UTC): 28 May 2015 12:07:37
Eccentricity: 0.0001163
inclination: 97.1360°
perigee height: 440 km
apogee height: 442 km
right ascension of ascending node: 165.2585°
argument of perigee: 78.0252°
revolutions per day: 15.41582755
mean anomaly at epoch: 52.0523°
orbit number at epoch: 31708

The dashed part of the orbit path shows where the satellite is in the earth's shadow,  

DLR